User: anonymous   Login
Location: NJAA Observatory
(40.6819°N, 74.8979°W)
Time: 00:24:38
(UTC-04:00)
Language:

Cosmos 1939 Rocket - Orbit

View from above orbital plane
View from above orbital plane
View from above satellite
View from above satellite

Ground track
Ground track

The orbit data is extracted from the following two-line orbital elements,

1 19046U 88032B   15091.44239249  .00003145  00000-0  24781-3 0  9992
2 19046 097.6216 145.4848 0041933 198.6028 161.3665 15.00811487451419
Epoch (UTC): 01 April 2015 10:37:02
Eccentricity: 0.0041933
inclination: 97.6216°
perigee height: 535 km
apogee height: 593 km
right ascension of ascending node: 145.4848°
argument of perigee: 198.6028°
revolutions per day: 15.00811487
mean anomaly at epoch: 161.3665°
orbit number at epoch: 45141

The dashed part of the orbit path shows where the satellite is in the earth's shadow,  

DLR